LiveATC.Net - Listen to live air traffic control over the Internet!


ICAO: KBLI  IATA: BLI   Airport: Bellingham International Airport
City: Bellingham   State/Province: Washington
Country: United States   Continent: North America
KBLI METAR Weather: KBLI 081353Z AUTO 17005KT 10SM CLR 03/02 A3039 RMK AO2 SLP301 T00330022
KBLI ADS-B Flight Tracking  (ADSBExchange)
KBLI Flight Activity (FlightAware)
KBLI Webcam:  (Airport Webcams) 
KBLI Airport Info   (iFlightPlanner)
KBLI VFR Sectional Chart   (iFlightPlanner) 
KBLI IFR Low Altitude Chart   (iFlightPlanner) 
KBLI IFR High Altitude Chart   (iFlightPlanner) 

KBLI Tower
Feed Status: UP   Listeners: 0
Listen in your browser - HTML5 player (in browser, HTML5)
Click here to listen with your own player (launches your MP3 player)
Archive Access: KBLI Tower
FacilityFrequency
Bellingham Tower124.900

NOTICE

Unauthorized use prohibited. See LiveATC.net Terms of Service


Airport/ARTCC Code
Frequency Search
(e.g., 124.400, 128.75)
Site-wide search
 


Browse Feeds
Top 50 Feeds
HF Oceanic Feeds
Coverage Map
Bad Weather Areas

LiveATC FAQ
Offer LiveATC feed
Contact LiveATC.net
Press Inquiries

LiveATC on iPhone
LiveATC on Android

LiveATC Mobile
(Mobile browser)

ATC Audio Archives
Interesting Recordings

LiveATC Forums


Home Page
About LiveATC.net


Terms of Use
Privacy Policy

AIRMETs/SIGMETs

FAA Airport Status
NAS Status
Arrival Demand


Server Software By:
Icecast.org
Liquidsoap